www.pogodaiklimat.ru
ПОГОДА в Дестине
Время
и дата
08:50 22.05
08:53 22.05
09:00 22.05
09:07 22.05
09:19 22.05
09:53 22.05
10:53 22.05
11:53 22.05
12:13 22.05
12:53 22.05
13:53 22.05
14:35 22.05
14:46 22.05
14:53 22.05
14:58 22.05
15:16 22.05
15:21 22.05
15:42 22.05
15:53 22.05
16:07 22.05
16:45 22.05
16:53 22.05
17:53 22.05
18:53 22.05
19:31 22.05
19:53 22.05
20:20 22.05
20:36 22.05
20:53 22.05
21:05 22.05
21:14 22.05
21:16 22.05
21:53 22.05
22:12 22.05
22:30 22.05
22:53 22.05
23:32 22.05
23:53 22.05
00:08 23.05
02:53 23.05
04:53 23.05
05:53 23.05
06:39 23.05
06:53 23.05
07:53 23.05
08:53 23.05
13:53 23.05
14:53 23.05
Ветер
(напр.,м/с)
Видим. Явления Облачность Т
(С)
Тd
(С)
f
(%)
Тe
(С)
Тes
(С)
Комфортность P
(гПа)
Po
(гПа)
Тmin
(С)
Tmax
(С)
R
(мм)
R24
(мм)
S
(см)
Ю 2
{5}
2 км гроза с сильным дождем, дымка 10/10 300 м +23.0 +21.0 89
Ю 2
{4}
2 км гроза с сильным дождем, дымка 10/10 300 м +22.8 +20.6 87 1022.7 18.8
ЮЗ 3
{5}
0 м гроза, дождь, дымка 10/10 330 м +22.8 +20.6 87
Ю 2
{5}
5 км гроза, дождь, дымка 10/10 330 м +22.8 +20.6 87
Ю 1 3 км сильный дождь, дымка 10/8 450 м
[Ac]
+22.8 +20.6 87
нст 1 6 км слабый дождь, дымка 10/2 570 м
[Ac]
+23.3 +21.1 87 +31 +37 очень
душно
1022.9 1022.2
С 1 5 км мгла 8/0 3300 м
[Ac]
+23.9 +21.1 84 +30 +38 очень
душно
1022.5 1021.8
С 2 5 км мгла ясно +25.0 +21.7 82 +32 +46 очень
душно
1020.7 1019.8 +22.8 +27.8 22.4
СВ 1 5 км мгла 2/2 270 м +25.6 +21.7 79 +33 +47 очень
душно
1019.8
СВ 1 5 км мгла ясно +26.1 +21.1 74 +33 +51 опасность
солнечного
удара
1019.7 1019.1
В 2 16 км 5/5 1950 м +25.6 +21.1 76 +32 +39 очень
душно
1019.5 1018.8
В 1 0 м гроза ясно +25.0 +21.1 79 +32 +48 очень
душно
1018.1
ЮВ 3
{4}
3 км гроза, мгла 8/5 720 м
[Ac]
+25.0 +21.7 82 +32 +34 очень
душно
1019.5
Ю 2
{4}
2 км гроза, мгла 8/5 390 м
[Ac]
+23.3 +20.0 82 1020.2 3.6
Ю 2
{4}
5 км гроза, мгла 8/2 750 м
[Ac]
+23.3 +20.0 82
ЮВ 3
{4}
4 км гроза, мгла 10/2 330 м
[Ac]
+22.8 +20.0 84
ЮВ 3
{5}
5 км гроза, дымка 10/2 270 м
[Ac]
+22.8 +20.6 87
ЮВ 2
{5}
0 м гроза, дымка 10/2 360 м
[Ac]
+22.2 +20.0 87
ЮВ 2 8 км гроза, дымка 10/2 360 м
[Ac]
+22.2 +20.6 91 1019.8
ЮВ 3 0 м гроза, дымка 10/2 330 м
[Ac]
+22.2 +20.6 91 +29 +30 очень
душно
1019.1
В 2 8 км дымка 8/0 2100 м
[Ac]
+22.2 +20.6 91
В 2 11 км 8/2 1800 м
[Ac]
+22.2 +20.6 91 +29 +31 очень
душно
1018.9 1018.1
В 2 16 км ясно +22.2 +21.1 93 +29 +31 очень
душно
1017.9 1017.1 +21.7 +27.2 13.2
В 2 16 км 5/5 1440 м +22.2 +20.6 91 +29 +29 очень
душно
1017.6 1016.8
В 1 16 км 8/8 690 м +22.2 +20.6 91 +29 +29 очень
душно
1016.4
В 2 16 км 10/10 480 м +22.2 +20.0 87 +28 +28 душно 1016.5 1015.8
В 2 16 км 10/10 420 м +22.2 +20.0 87 +28 +28 душно 1016.1
В 2
{4}
0 м гроза 10/10 390 м +22.2 +20.6 91 +29 +29 очень
душно
1016.4
В 2 0 м гроза, дымка 10/10 240 м +22.2 +20.6 91 +29 +29 очень
душно
1017.0 1016.4 2.8
В 2 4 км гроза, дымка 10/10 240 м +22.2 +20.6 91 +29 +29 очень
душно
1016.4
ЮВ 4
{5}
5 км дымка 10/10 270 м +23.3 +21.7 91 +32 +32 очень
душно
1016.4
ЮВ 3
{5}
8 км дымка 10/10 210 м +23.3 +21.7 91 +32 +32 очень
душно
1016.8
ЮВ 4
{6}
16 км 8/8 390 м +25.0 +22.8 88 +33 +33 очень
душно
1016.6 1015.8
ЮВ 4
{6}
16 км 8/8 480 м +26.1 +23.3 85 +35 +35 очень
душно
1016.1
Ю 3
{5}
16 км 10/8 660 м
[Ac]
+26.1 +23.3 85 +35 +35 очень
душно
1015.8
Ю 3
{6}
16 км 10/10 780 м +26.1 +22.8 82 +35 +35 очень
душно
1016.3 1015.4
Ю 3
{6}
16 км 10/8 570 м
[Ac]
+26.7 +23.3 82 +36 +36 очень
душно
1015.4
Ю 3
{5}
16 км 8/8 510 м
[Ac]
+26.7 +23.3 82 +36 +36 очень
душно
1015.8 1015.1 +22.2 +26.7 6.4
Ю 3
{6}
16 км 5/5 570 м
[Ac]
+26.1 +23.3 85 +35 +35 очень
душно
1014.7
нст 1
{5}
13 км 10/5 1950 м
[Ac]
+25.6 +22.2 82 +33 +33 очень
душно
1016.5 1015.8 0.3
З 1 16 км ясно +25.0 +21.7 82 +32 +32 очень
душно
1017.0 1016.4
нст 1 16 км 2/0 3000 м
[Ac]
+25.6 +22.8 85 +34 +34 очень
душно
1017.6 1016.8 +24.4 +26.7 0.5 42.4
СЗ 1 0 м гроза 2/0 3300 м
[Ac]
+24.4 +22.8 91 +32 +33 очень
душно
1017.4
нст 1 16 км 5/0 3000 м
[Ac]
+24.4 +22.2 88 +32 +33 очень
душно
1018.1 1017.4
нст 1 16 км ясно +25.0 +21.1 79 +32 +36 очень
душно
1018.2 1017.4
штиль 0 16 км 8/0 2100 м
[Ac]
+25.6 +22.2 82 +33 +39 очень
душно
1018.2 1017.4
С 1 16 км 8/0 3300 м
[Ac]
+22.2 +19.4 84 +28 +37 душно 1016.6 1015.8
СВ 1 16 км ясно +25.0 +19.4 71 +30 +46 душно 1015.4 1014.7 1.0
Местоположение метеостанции Destin-Ft. Walton Beach Airport: широта 30.3933 долгота -86.4675 высота над уровнем моря 6 м.
В архиве по умолчанию представлена погода в Дестине за последние 1-2 суток. Обновление информации о фактической погоде в базе происходит ежечасно! Архивные данные за месяц целиком и за предыдущие месяцы Вы можете получить, выбрав интересующий диапазон дат из раскрывающегося списка и нажав кнопку "Ввод!".
Внимание! Архив погоды МЕТАР в базе сайта по станциям, не включенным в климатический монитор, хранится не более 60 дней. Нет смысла пытаться выбрать более раннюю дату.
*Определитесь, кто Вы:
Внимание! Время в таблицах - местное (без учета летнего времени). Для получения всемирного времени необходимо вычесть поправку, которая равна -6 ч.
Смотрите также архив погоды в соседних городах и на ближайших метеорологических станциях:
Партнеры нашего сайта:      
Пояснения к столбцам:
  • Ветер - указаны скорость ветра в м/с - средняя за 10 мин, порывы в срок и между сроками (в фигурных скобках) и направление, откуда дует ветер: С - северный,
  • СВ - северо-восточный, В - восточный, ЮВ - юго-восточный, Ю - южный, ЮЗ - юго-западный, З - западный, СЗ - северо-западный.
  • Видимость - горизонтальная дальность видимости в метрах или километрах. При видимости от 1 до 10 км при отсутствии осадков обычно наблюдается дымка, при ухудшении видимости до 1 км и менее - туман. В сухую погоду видимость может ухудшаться дымом, пылью или мглою.
  • Явления - указаны атмосферные явления, наблюдавшиеся в срок или в последний час перед сроком; фигурными скобками обозначены явления, наблюдавшиеся между сроками (за 1-3 часа до срока); квадратными скобками обозначены град или гололедные отложения с указанием их диаметра в мм.
  • Облачность - указаны через наклонную черту общая и нижняя облачность в баллах и высота нижней границы облаков в метрах; квадратными скобками обозначены формы облаков: Ci - перистые, Cs - перисто-слоистые, Cc - перисто-кучевые, Ac - высококучевые, As - высокослоистые, Sc - слоисто-кучевые, Ns - слоисто-дождевые, Cu - кучевые, Cb - кучево-дождевые. Подробнее классификацию облаков см. в Атласе облаков (PDF).
  • T - Температура воздуха - температура, измеренная на высоте 2 м над землей.
  • Td - Температура точки росы - температура, при понижении до которой содержащийся в воздухе водяной пар достигнет насыщения.
  • f - Относительная влажность воздуха - влажноcть воздуха, измеренная на высоте 2 м над землей.
  • Te - Эффективная температура - температура, которую ощущает одетый по сезону человек в тени. Характеристика душности погоды. При расчете учитывается влияние влажности воздуха и скорости ветра на теплоощущения человека.
  • Tes - Эффективная температура на солнце - температура, которую ощущает человек, с поправкой на солнечный нагрев. Характеристика знойности погоды. Зависит от высоты солнца над горизонтом, облачности и скорости ветра. Ночью, в пасмурную погоду, а также при ветре 12 м/с и более поправка равна нулю.
  • P - Атмосферное давление - приведенное к уровню моря атмосферное давление.
  • Po - Атмосферное давление - измеренное на уровне метеостанции атмосферное давление.
  • Tmin - Минимальная температура - минимум температуры воздуха на высоте 2 м над землей.
  • Tmax - Максимальная температура - максимум температуры воздуха на высоте 2 м над землей.
  • R - Количество осадков - Количество выпавших осадков за период времени, мм. При наведении курсора мыши на число - период времени, за который выпало указанное количество осадков.
  • R24 - Количество осадков - Количество выпавших осадков за 24 часа, мм.
  • S - Снежный покров - Высота снежного покрова, см. При наведении курсора мыши на число - состояние снежного покрова и степень покрытия местности в баллах.